User: anonymous   Login
Location: Oshawa
(43.9000°N, 78.8670°W)
Time: 17:02:25
(UTC-05:00)
Language:

Explorer 7 - Orbit

View from above orbital plane
View from above orbital plane
View from above satellite
View from above satellite

Ground track
Ground track

The orbit data is extracted from the following two-line orbital elements,

1 00022U 59009A   14355.48014783  .00013562  00000-0  11191-2 0  1118
2 00022 050.2839 131.9471 0151138 172.9370 187.3754 14.90719586925570
Epoch (UTC): 21 December 2014 11:31:24
Eccentricity: 0.0151138
inclination: 50.2839°
perigee height: 490 km
apogee height: 701 km
right ascension of ascending node: 131.9471°
argument of perigee: 172.9370°
revolutions per day: 14.90719586
mean anomaly at epoch: 187.3754°
orbit number at epoch: 92557

The dashed part of the orbit path shows where the satellite is in the earth's shadow,  

DLR